CST,Max TemperatureF,Mean TemperatureF,Min TemperatureF,Max Dew PointF,MeanDew PointF,Min DewpointF,Max Humidity, Mean Humidity, Min Humidity, Max Sea Level PressureIn, Mean Sea Level PressureIn, Min Sea Level PressureIn, Max VisibilityMiles, Mean VisibilityMiles, Min VisibilityMiles, Max Wind SpeedMPH, Mean Wind SpeedMPH, Max Gust SpeedMPH,PrecipitationIn, CloudCover, Events, WindDirDegrees
2014-2-1,23,12,1,16,11,-1,86,74,61,30.36,30.12,29.95,10,9,4,24,10,31,0.01,4,Snow,346
2014-2-2,26,10,-7,14,4,-9,91,73,54,30.42,30.34,30.26,10,10,10,13,7,17,0.00,0,,221
2014-2-3,27,15,3,15,10,1,91,73,55,30.27,30.20,30.06,10,10,10,13,6,18,T,6,,157
2014-2-4,24,14,4,17,8,-2,88,78,68,30.52,30.24,30.12,10,3,0,32,18,40,0.10,8,Fog-Snow,28
2014-2-5,9,-1,-11,-2,-6,-16,79,67,55,30.77,30.65,30.41,10,8,2,29,15,34,0.01,3,Snow,346
2014-2-6,7,-3,-14,-6,-11,-19,78,67,55,30.72,30.62,30.44,10,10,10,13,6,15,T,4,,274
2014-2-7,12,7,1,7,3,-6,83,78,72,30.42,30.23,30.03,10,9,6,14,8,18,T,7,Snow,183
2014-2-8,25,18,11,15,12,8,92,74,55,30.28,30.12,30.02,10,7,1,16,8,23,0.01,5,Snow,354
2014-2-9,18,14,10,15,7,3,88,81,73,30.48,30.33,30.19,10,6,1,17,11,21,0.06,8,Snow,16
2014-2-10,13,10,7,5,3,0,80,73,66,30.53,30.49,30.45,10,10,9,10,6,13,T,8,,128
2014-2-11,26,18,10,18,11,4,84,76,68,30.46,30.26,30.05,10,10,10,20,12,26,0.00,6,,183
2014-2-12,36,29,21,30,23,16,85,77,69,30.18,30.05,29.83,10,10,10,28,12,35,0.00,4,,304
2014-2-13,53,40,26,31,27,22,81,60,38,29.86,29.77,29.60,10,10,10,16,9,23,T,1,Rain,243
2014-2-14,42,34,25,33,24,20,92,73,54,30.08,29.95,29.62,10,10,10,25,12,29,0.00,1,,1
2014-2-15,57,42,26,33,25,22,85,56,26,30.13,29.94,29.83,10,10,10,32,12,40,0.00,4,,258
2014-2-16,45,35,24,31,27,22,92,75,57,30.12,29.98,29.78,10,9,5,24,11,31,0.00,1,,137
2014-2-17,57,45,33,33,23,15,89,54,19,30.04,29.92,29.78,10,10,9,30,14,36,0.00,1,,265
2014-2-18,66,48,29,25,20,18,69,43,16,30.02,29.80,29.68,10,10,10,32,12,39,0.00,0,,261
2014-2-19,56,41,25,25,21,18,75,50,24,29.99,29.80,29.54,10,10,10,18,9,25,0.00,0,,186
2014-2-20,45,36,27,31,25,11,89,59,28,29.88,29.68,29.55,10,8,1,39,21,47,0.10,5,Snow,333
2014-2-21,53,37,21,22,16,10,81,50,19,29.88,29.84,29.80,10,10,10,28,12,35,0.00,1,,268
2014-2-22,43,34,25,25,20,14,75,57,39,30.21,30.02,29.87,10,9,4,20,11,26,T,4,Snow,27
2014-2-23,28,25,22,17,12,6,68,57,46,30.39,30.32,30.17,10,8,2,18,8,23,T,8,Snow,40
2014-2-24,32,24,16,20,17,9,88,69,49,30.43,30.28,30.14,10,9,1,30,10,36,0.04,7,Snow,104
2014-2-25,17,12,7,9,4,-1,73,62,51,30.58,30.45,30.34,10,9,2,29,14,35,T,6,Snow,354
2014-2-26,31,17,2,16,7,-3,87,67,46,30.56,30.23,30.04,10,10,10,24,12,33,0.00,0,,259
2014-2-27,30,19,8,9,5,0,80,59,38,30.16,30.01,29.81,10,10,10,21,11,26,0.00,1,,106
2014-2-28,41,30,18,21,13,4,69,55,40,30.18,29.90,29.71,10,10,10,30,13,35,0.00,6,,38